Location: Grand Mazuras
(45.9128°N, 1.7636°E)
Time: 07:03:15
(UTC+00:00)

RESURS DK-1 - Pass Details

Date: 18 April 2021
Orbit: 554 x 563 km, 69.9° (Epoch: 05 May)

Event Time Altitude Azimuth Distance (km) Brightness Sun altitude
Rises 20:14:51 0° 210° (SSW) 2,724 5.8 -15.0°
Reaches altitude 10° 20:17:03 10° 212° (SSW) 1,836 5.0 -15.3°
Maximum altitude 20:21:09 77° 298° (WNW) 577 2.5 -15.9°
Drops below altitude 10° 20:25:18 10° 25° (NNE) 1,856 5.1 -16.5°
Sets 20:27:31 0° 27° (NNE) 2,757 6.0 -16.8°
